When you browse on this site, cookies collect data to enhance your experience and personalize the content and advertising you see.
Visit our Privacy Policy to learn more. By continuing to use the site, you agree to this use of cookies and data.
  • In Germany
  • List of Countries
  • For 7 days
  • Water Temperature
  • Satellite Maps
  • Weather Map
  • Weather Widgets
  • user-avatar
    Login

    Hourly Weather Laki

    Today, 20 July, Saturday

    Time Temperature Precipitation Wind Pressure Humidity
    00:00 +19°C° 0.3 mm 2 mps 753 mmHg 77%
    01:00 +18°C° 0 mm 2 mps 754 mmHg 84%
    02:00 +18°C° 0.4 mm 2 mps 754 mmHg 85%
    03:00 +18°C° 0.4 mm 2 mps 754 mmHg 87%
    04:00 +18°C° 0.4 mm 2 mps 754 mmHg 89%
    05:00 +19°C° 0.1 mm 2 mps 754 mmHg 86%
    06:00 +20°C° 0.1 mm 2 mps 754 mmHg 83%
    07:00 +21°C° 0.1 mm 2 mps 754 mmHg 80%
    08:00 +23°C° 0 mm 2 mps 754 mmHg 72%
    09:00 +25°C° 0 mm 2 mps 754 mmHg 65%
    10:00 +26°C° 0 mm 2 mps 754 mmHg 58%
    11:00 +27°C° 0.1 mm 2 mps 754 mmHg 54%
    12:00 +28°C° 0.1 mm 3 mps 754 mmHg 51%
    13:00 +29°C° 0.1 mm 3 mps 754 mmHg 47%
    14:00 +29°C° 0.2 mm 2 mps 754 mmHg 49%
    15:00 +28°C° 0.2 mm 2 mps 754 mmHg 51%
    16:00 +28°C° 0.2 mm 2 mps 754 mmHg 53%
    17:00 +27°C° 0.1 mm 1 mps 754 mmHg 58%
    18:00 +26°C° 0.1 mm 1 mps 754 mmHg 63%
    19:00 +25°C° 0.1 mm 1 mps 754 mmHg 67%
    20:00 +24°C° 0 mm 1 mps 754 mmHg 69%
    21:00 +23°C° 0 mm 1 mps 754 mmHg 71%
    22:00 +22°C° 0 mm 1 mps 754 mmHg 73%
    23:00 +22°C° 0 mm 1 mps 754 mmHg 74%

    Tomorrow, 21 July, Sunday

    Time Temperature Precipitation Wind Pressure Humidity
    00:00 +21°C° 0 mm 1 mps 754 mmHg 75%
    01:00 +21°C° 0 mm 1 mps 754 mmHg 75%
    02:00 +21°C° 0 mm 1 mps 754 mmHg 76%
    03:00 +20°C° 0 mm 1 mps 754 mmHg 77%
    04:00 +20°C° 0 mm 1 mps 754 mmHg 78%
    05:00 +20°C° 0 mm 2 mps 754 mmHg 73%
    06:00 +23°C° 0 mm 2 mps 754 mmHg 68%
    07:00 +25°C° 0 mm 2 mps 754 mmHg 63%
    08:00 +26°C° 0 mm 3 mps 754 mmHg 59%
    09:00 +27°C° 0 mm 3 mps 754 mmHg 56%
    10:00 +29°C° 0 mm 4 mps 754 mmHg 52%
    11:00 +29°C° 0.1 mm 4 mps 754 mmHg 52%
    12:00 +30°C° 0.1 mm 4 mps 753 mmHg 52%
    13:00 +30°C° 0.1 mm 4 mps 753 mmHg 52%
    14:00 +30°C° 1.6 mm 4 mps 753 mmHg 55%
    15:00 +29°C° 1.6 mm 3 mps 753 mmHg 57%
    16:00 +29°C° 1.6 mm 3 mps 753 mmHg 60%
    17:00 +27°C° 1.4 mm 3 mps 754 mmHg 66%
    18:00 +26°C° 1.4 mm 4 mps 754 mmHg 72%
    19:00 +23°C° 1.4 mm 4 mps 754 mmHg 79%
    20:00 +22°C° 0.1 mm 4 mps 754 mmHg 82%
    21:00 +21°C° 0.1 mm 3 mps 754 mmHg 85%
    22:00 +20°C° 0.1 mm 3 mps 755 mmHg 88%
    23:00 +19°C° 0 mm 3 mps 755 mmHg 89%

    Day after tomorrow, 22 July, Monday

    Time Temperature Precipitation Wind Pressure Humidity
    00:00 +19°C° 0 mm 3 mps 755 mmHg 90%
    01:00 +18°C° 0 mm 3 mps 755 mmHg 91%
    02:00 +18°C° 0 mm 3 mps 756 mmHg 90%
    03:00 +17°C° 0 mm 3 mps 756 mmHg 90%
    04:00 +17°C° 0 mm 3 mps 756 mmHg 89%
    05:00 +18°C° 0 mm 4 mps 757 mmHg 86%
    06:00 +17°C° 0 mm 5 mps 757 mmHg 83%
    07:00 +19°C° 0 mm 5 mps 757 mmHg 81%
    08:00 +19°C° 0.1 mm 5 mps 757 mmHg 79%
    09:00 +20°C° 0.1 mm 5 mps 757 mmHg 78%
    10:00 +20°C° 0.1 mm 5 mps 758 mmHg 77%
    11:00 +21°C° 0.1 mm 5 mps 758 mmHg 70%
    12:00 +22°C° 0.1 mm 6 mps 758 mmHg 63%
    13:00 +24°C° 0.1 mm 6 mps 758 mmHg 56%
    14:00 +24°C° 0 mm 6 mps 758 mmHg 55%
    15:00 +24°C° 0 mm 6 mps 758 mmHg 55%
    16:00 +24°C° 0 mm 6 mps 758 mmHg 54%
    17:00 +23°C° 0 mm 5 mps 758 mmHg 59%
    18:00 +22°C° 0 mm 4 mps 758 mmHg 64%
    19:00 +21°C° 0 mm 3 mps 758 mmHg 69%
    20:00 +19°C° 0 mm 3 mps 758 mmHg 72%
    21:00 +18°C° 0 mm 3 mps 758 mmHg 75%
    22:00 +17°C° 0 mm 3 mps 758 mmHg 77%
    23:00 +17°C° 0 mm 3 mps 758 mmHg 79%

    23 July, Tuesday

    Time Temperature Precipitation Wind Pressure Humidity
    00:00 +16°C° 0 mm 3 mps 758 mmHg 81%
    01:00 +14°C° 0 mm 3 mps 758 mmHg 83%
    02:00 +14°C° 0 mm 3 mps 758 mmHg 85%
    03:00 +14°C° 0 mm 3 mps 758 mmHg 86%
    04:00 +13°C° 0 mm 3 mps 758 mmHg 88%
    05:00 +16°C° 0 mm 3 mps 758 mmHg 84%
    06:00 +17°C° 0 mm 4 mps 758 mmHg 80%
    07:00 +19°C° 0 mm 4 mps 758 mmHg 76%
    08:00 +20°C° 0 mm 4 mps 757 mmHg 71%
    09:00 +21°C° 0 mm 4 mps 757 mmHg 67%
    10:00 +23°C° 0 mm 5 mps 757 mmHg 63%
    11:00 +25°C° 0.1 mm 5 mps 757 mmHg 60%
    12:00 +25°C° 0.1 mm 5 mps 757 mmHg 58%
    13:00 +26°C° 0.1 mm 5 mps 757 mmHg 55%
    14:00 +26°C° 0 mm 5 mps 757 mmHg 56%
    15:00 +26°C° 0 mm 5 mps 757 mmHg 56%
    16:00 +26°C° 0 mm 5 mps 757 mmHg 56%
    17:00 +25°C° 0 mm 4 mps 756 mmHg 62%
    18:00 +23°C° 0 mm 4 mps 756 mmHg 68%
    19:00 +22°C° 0 mm 3 mps 756 mmHg 74%
    20:00 +21°C° 0 mm 3 mps 757 mmHg 79%
    21:00 +20°C° 0 mm 2 mps 757 mmHg 83%
    22:00 +19°C° 0 mm 2 mps 757 mmHg 88%
    23:00 +18°C° 0 mm 2 mps 757 mmHg 89%

    24 July, Wednesday

    Time Temperature Precipitation Wind Pressure Humidity
    00:00 +17°C° 0 mm 2 mps 757 mmHg 90%
    01:00 +17°C° 0 mm 2 mps 757 mmHg 91%
    02:00 +17°C° 0 mm 2 mps 757 mmHg 92%
    03:00 +16°C° 0 mm 2 mps 757 mmHg 92%
    04:00 +16°C° 0 mm 1 mps 757 mmHg 93%
    05:00 +18°C° 0 mm 1 mps 757 mmHg 87%
    06:00 +20°C° 0 mm 1 mps 757 mmHg 81%
    07:00 +21°C° 0 mm 1 mps 757 mmHg 75%
    08:00 +23°C° 0 mm 2 mps 757 mmHg 71%
    09:00 +24°C° 0 mm 2 mps 757 mmHg 66%
    10:00 +25°C° 0 mm 2 mps 757 mmHg 61%
    11:00 +26°C° 0 mm 2 mps 757 mmHg 60%
    12:00 +26°C° 0 mm 3 mps 757 mmHg 59%
    13:00 +27°C° 0 mm 3 mps 757 mmHg 58%
    14:00 +27°C° 0 mm 3 mps 757 mmHg 58%
    15:00 +27°C° 0 mm 2 mps 757 mmHg 58%
    16:00 +27°C° 0 mm 2 mps 757 mmHg 57%
    17:00 +26°C° 0 mm 2 mps 757 mmHg 62%
    18:00 +26°C° 0 mm 1 mps 757 mmHg 67%
    19:00 +25°C° 0 mm 1 mps 757 mmHg 71%
    20:00 +24°C° 0 mm 1 mps 757 mmHg 74%
    21:00 +23°C° 0 mm 1 mps 757 mmHg 77%
    22:00 +22°C° 0 mm 1 mps 758 mmHg 80%
    23:00 +22°C° 0 mm 1 mps 758 mmHg 83%

    25 July, Thursday

    Time Temperature Precipitation Wind Pressure Humidity
    00:00 +21°C° 0 mm 1 mps 758 mmHg 85%
    01:00 +19°C° 0 mm 0 mps 758 mmHg 88%
    02:00 +18°C° 0 mm 0 mps 758 mmHg 88%
    03:00 +18°C° 0 mm 0 mps 758 mmHg 89%
    04:00 +20°C° 0 mm 1 mps 758 mmHg 90%
    05:00 +21°C° 0 mm 1 mps 758 mmHg 84%
    06:00 +23°C° 0 mm 1 mps 759 mmHg 79%
    07:00 +24°C° 0 mm 1 mps 759 mmHg 73%
    08:00 +26°C° 0 mm 1 mps 759 mmHg 67%
    09:00 +27°C° 0 mm 1 mps 759 mmHg 62%
    10:00 +28°C° 0 mm 1 mps 759 mmHg 56%
    11:00 +29°C° 0 mm 1 mps 759 mmHg 53%
    12:00 +30°C° 0 mm 1 mps 759 mmHg 49%
    13:00 +31°C° 0 mm 1 mps 759 mmHg 45%
    14:00 +31°C° 0 mm 2 mps 758 mmHg 46%
    15:00 +31°C° 0 mm 2 mps 758 mmHg 46%
    16:00 +31°C° 0 mm 2 mps 758 mmHg 46%
    17:00 +29°C° 0 mm 2 mps 758 mmHg 51%
    18:00 +28°C° 0 mm 2 mps 758 mmHg 57%
    19:00 +26°C° 0 mm 2 mps 758 mmHg 63%
    20:00 +25°C° 0 mm 2 mps 758 mmHg 65%
    21:00 +24°C° 0 mm 1 mps 758 mmHg 68%
    22:00 +23°C° 0 mm 1 mps 759 mmHg 71%
    23:00 +23°C° 0 mm 1 mps 759 mmHg 74%
    Show more